N1MCJ Weather Reports


Display with metric or nautical units.
time (UTC)temp
F
wind
direction
speed
MPH
gust
MPH
rain 1hr
in
rain 24hr
in
rain mn
in
humidity
%
barometer
mb
20260506144803 61 205 2.0 3.0 0.00 0.00 0.00 83 1001.5
20260506143300 62 171 3.0 6.0 0.00 0.00 0.00 82 1001.5
20260506141759 62 166 3.0 5.0 0.00 0.00 0.00 82 1001.3
20260506140257 63 133 5.0 6.0 0.00 0.00 0.00 80 1001.5
20260506134753 62 60 2.0 3.0 0.00 0.00 0.00 82 1001.6
20260506133249 61 260 4.0 5.0 0.00 0.00 0.00 84 1001.6
20260506131747 61 67 0.0 0.0 0.00 0.00 0.00 85 1001.1
20260506130243 61 96 2.0 2.0 0.00 0.00 0.00 85 1001.3
20260506124742 61 77 2.0 3.0 0.00 0.00 0.00 86 1001.5
20260506123241 60 175 4.0 8.0 0.00 0.00 0.00 86 1001.6
20260506121739 60 258 5.0 6.0 0.00 0.00 0.00 87 1002.1
20260506120236 59 76 1.0 1.0 0.00 0.00 0.00 90 1002.0
20260506114736 59 165 3.0 5.0 0.00 0.00 0.00 89 1001.7
20260506113234 58 267 3.0 3.0 0.00 0.00 0.00 91 1001.6
20260506111731 57 271 3.0 5.0 0.00 0.00 0.00 93 1001.7
20260506110229 56 56 0.0 1.0 0.00 0.00 0.00 94 1001.5
20260506104726 56 60 1.0 2.0 0.00 0.00 0.00 95 1001.6
20260506103223 55 96 0.0 1.0 0.00 0.00 0.00 96 1001.4
20260506101721 55 72 1.0 1.0 0.00 0.00 0.00 96 1001.7
20260506100220 55 62 0.0 1.0 0.00 0.00 0.00 96 1001.7
20260506094717 55 79 1.0 1.0 0.00 0.00 0.00 96 1001.5
20260506093216 55 58 0.0 0.0 0.00 0.00 0.00 95 1001.5
20260506091715 55 101 2.0 2.0 0.00 0.00 0.00 95 1001.5
20260506090212 55 45 1.0 1.0 0.00 0.00 0.00 94 1001.6
20260506084708 55 86 2.0 2.0 0.00 0.00 0.00 94 1001.7
20260506083205 56 13 1.0 2.0 0.00 0.00 0.00 93 1001.7
20260506081700 56 163 5.0 6.0 0.00 0.00 0.00 93 1001.7
20260506080157 56 335 1.0 2.0 0.00 0.00 0.00 92 1001.8
20260506073153 56 62 1.0 1.0 0.00 0.00 0.00 91 1001.9
20260506071651 57 33 0.0 1.0 0.00 0.00 0.00 90 1002.0
20260506070148 57 239 2.0 5.0 0.00 0.00 0.00 90 1001.8
20260506061638 57 75 1.0 1.0 0.00 0.00 0.00 88 1001.7
20260506060137 58 55 1.0 1.0 0.00 0.00 0.00 87 1002.0
20260506050128 60 324 2.0 3.0 0.00 0.00 0.00 82 1001.9
20260506044625 60 224 3.0 3.0 0.00 0.00 0.00 81 1002.0
20260506043123 60 21 4.0 6.0 0.00 0.00 0.00 81 1002.3
20260506041618 61 196 6.0 9.0 0.00 0.00 0.00 80 1002.1
20260506040114 61 82 4.0 7.0 0.00 0.00 0.00 78 1002.4
20260506034611 61 64 2.0 3.0 0.00 0.00 0.00 77 1001.9
20260506033108 61 225 2.0 2.0 0.00 0.00 0.00 76 1002.1
20260506031605 62 202 7.0 9.0 0.00 0.00 0.00 75 1002.1
20260506030103 62 289 4.0 5.0 0.00 0.00 0.00 75 1002.4
20260506024559 62 227 3.0 5.0 0.00 0.00 0.00 74 1002.3
20260506023055 62 93 1.0 1.0 0.00 0.00 0.00 73 1002.3
20260506021553 62 95 2.0 3.0 0.00 0.00 0.00 72 1002.4
20260506020050 63 169 3.0 5.0 0.00 0.00 0.00 71 1001.9
20260506014548 63 18 5.0 6.0 0.00 0.00 0.00 71 1001.9
20260506013044 63 98 1.0 2.0 0.00 0.00 0.00 71 1001.9
20260506011540 63 171 2.0 2.0 0.00 0.00 0.00 70 1001.5
20260506010038 63 70 1.0 1.0 0.00 0.00 0.00 70 1001.3
20260506004534 63 9 3.0 5.0 0.00 0.00 0.00 69 1001.2
20260506003029 64 84 1.0 1.0 0.00 0.00 0.00 68 1001.0
20260506001524 64 47 1.0 2.0 0.00 0.00 0.00 67 1001.1
20260506000022 64 180 4.0 6.0 0.00 0.00 0.00 65 1000.8
20260505234519 65 105 2.0 2.0 0.00 0.00 0.00 64 1000.4
20260505233017 65 245 3.0 3.0 0.00 0.00 0.00 63 1000.5
20260505231514 66 176 5.0 6.0 0.00 0.00 0.00 63 1000.2
20260505230012 68 146 4.0 6.0 0.00 0.00 0.00 62 999.9
20260505224508 69 148 3.0 3.0 0.00 0.00 0.00 61 999.9
20260505223004 69 18 3.0 5.0 0.00 0.00 0.00 59 1000.2
20260505221459 70 250 2.0 3.0 0.00 0.00 0.00 59 1000.3
20260505215956 70 135 1.0 1.0 0.00 0.00 0.00 60 999.9
20260505214455 69 311 2.0 3.0 0.00 0.00 0.00 60 1000.0
20260505212952 72 200 2.0 5.0 0.00 0.00 0.00 59 999.9
20260505211449 72 209 6.0 9.0 0.00 0.00 0.00 57 999.8
20260505205944 71 37 0.0 1.0 0.00 0.00 0.00 58 999.8
20260505204443 71 169 3.0 5.0 0.00 0.00 0.00 59 999.7
20260505202938 72 271 3.0 6.0 0.00 0.00 0.00 56 999.9
20260505201434 73 52 2.0 2.0 0.00 0.00 0.00 57 999.8
20260505195930 72 73 3.0 5.0 0.00 0.00 0.00 57 1000.1
20260505194428 73 258 4.0 6.0 0.00 0.00 0.00 56 1000.3
20260505192924 72 190 5.0 7.0 0.00 0.00 0.00 59 1000.2
20260505191424 72 68 1.0 1.0 0.00 0.00 0.00 58 1000.7
20260505185922 74 189 2.0 2.0 0.00 0.00 0.00 57 1000.8
20260505184419 73 19 4.0 5.0 0.00 0.00 0.00 58 1001.0
20260505182915 73 140 3.0 3.0 0.00 0.00 0.00 58 1000.9
20260505181412 73 214 3.0 3.0 0.00 0.00 0.00 57 1001.1
20260505175907 74 181 3.0 3.0 0.00 0.00 0.00 57 1000.9
20260505174404 73 118 3.0 6.0 0.00 0.00 0.00 55 1001.2
20260505172859 73 131 3.0 5.0 0.00 0.00 0.00 56 1001.0
20260505171359 73 183 6.0 8.0 0.00 0.00 0.00 55 1001.4
20260505165854 73 169 3.0 5.0 0.00 0.00 0.00 57 1001.4
20260505164354 72 219 2.0 3.0 0.00 0.00 0.00 58 1001.3
20260505162850 72 263 5.0 7.0 0.00 0.00 0.00 58 1001.5
20260505161345 72 128 2.0 3.0 0.00 0.00 0.00 57 1002.2
20260505152834 70 100 1.0 2.0 0.00 0.00 0.00 61 1002.2
20260505151334 69 177 3.0 3.0 0.00 0.00 0.00 62 1002.4